St. Petersburg Airport, FL

8:05 AM EDT on October 19, 2017 (GMT -0400)
Saint Petersburg-Clearwater International

Weather History for KPIE - September, 2012

Change the Weather History Date:

Sunday, September 9, 2012

  Actual Average Record
Temperature  
Mean Temperature 78 °F -  
Max Temperature 86 °F 89 °F 93 °F (1987)
Min Temperature 73 °F 76 °F 70 °F (1950)
Cooling Degree Days 14    
Growing Degree Days 28 (Base 50)    
Moisture  
Dew Point 74 °F    
Average Humidity 88    
Maximum Humidity 100    
Minimum Humidity 74    
Precipitation  
Precipitation 0.92 in - - ()
Sea Level Pressure  
Sea Level Pressure 29.94 in    
Wind  
Wind Speed 10 mph (WSW)    
Max Wind Speed 22 mph    
Max Gust Speed 32 mph    
Visibility 7 miles    
Events Rain , Thunderstorm    
Averages and records for this station are not official NWS values.
T = Trace of Precipitation, MM = Missing Value Source: NWS Daily Summary

Daily Weather History Graph

Daily Weather History Graph

Search for Another Location

Airport or City:

Trip Planner

Search our weather history database for the weather conditions in past years. The results will help you decide how hot, cold, wet, or windy it might be!

Date:

Astronomy

Sep. 09, 2012 Rise Set
Actual Time 7:13 AM EDT 7:41 PM EDT
Civil Twilight 6:49 AM EDT 8:05 PM EDT
Nautical Twilight 6:22 AM EDT 8:33 PM EDT
Astronomical Twilight 5:54 AM EDT 9:01 PM EDT
Moon 1:04 AM EDT (9/9) 3:04 PM EDT (9/9)
Length of Visible Light 13h 15m
Length of Day
12h 28m
Last Quarter, 39% of the Moon is Illuminated
Sep 9
Last Quarter
Sep 15
New
Sep 22
First Quarter
Sep 29
Full
Oct 8
Last Quarter

Hourly Weather History & Observations

Time (EDT) Temp. Heat Index Dew Point Humidity Pressure Visibility Wind Dir Wind Speed Gust Speed Precip Events Conditions
12:53 AM 82.9 °F 90.2 °F 75.0 °F 77% 29.89 in 10.0 mi SW 12.7 mph 23.0 mph N/A   Mostly Cloudy
1:53 AM 82.9 °F 89.4 °F 73.9 °F 74% 29.88 in 10.0 mi SW 12.7 mph 23.0 mph N/A   Partly Cloudy
2:53 AM 82.9 °F 89.4 °F 73.9 °F 74% 29.87 in 10.0 mi SW 13.8 mph 21.9 mph N/A   Scattered Clouds
3:53 AM 82.0 °F 87.9 °F 73.9 °F 76% 29.87 in 10.0 mi SW 12.7 mph 21.9 mph 0.00 in   Partly Cloudy
4:53 AM 82.0 °F 88.6 °F 75.0 °F 79% 29.87 in 10.0 mi SW 11.5 mph - N/A   Partly Cloudy
5:53 AM 82.0 °F 88.6 °F 75.0 °F 79% 29.87 in 10.0 mi SW 11.5 mph - N/A   Mostly Cloudy
6:27 AM 82.4 °F 88.2 °F 73.4 °F 74% 29.88 in 10.0 mi SW 15.0 mph - N/A Thunderstorm Mostly Cloudy
6:51 AM 78.8 °F - 75.2 °F 89% 29.90 in 2.5 mi West 21.9 mph 31.1 mph 0.09 in Rain , Thunderstorm Heavy Rain
6:53 AM 78.1 °F - 73.9 °F 87% 29.90 in 2.0 mi West 20.7 mph 32.2 mph 0.11 in Rain , Thunderstorm Heavy Rain
6:56 AM 77.0 °F - 73.4 °F 89% 29.90 in 1.5 mi West 16.1 mph 32.2 mph 0.02 in Rain , Thunderstorm Heavy Rain
7:02 AM 77.0 °F - 73.4 °F 89% 29.90 in 3.0 mi West 11.5 mph 32.2 mph N/A Rain , Thunderstorm Thunderstorms and Rain
7:11 AM 77.0 °F - 75.2 °F 94% 29.90 in 2.0 mi West 12.7 mph - 0.04 in Rain , Thunderstorm Light Thunderstorms and Rain
7:27 AM 77.0 °F - 75.2 °F 94% 29.91 in 7.0 mi West 5.8 mph - 0.14 in Rain , Thunderstorm Light Rain
7:39 AM 78.8 °F - 75.2 °F 89% 29.90 in 7.0 mi West 6.9 mph - 0.15 in   Overcast
7:53 AM 78.1 °F - 75.9 °F 93% 29.91 in 8.0 mi West 9.2 mph - 0.18 in Rain Light Rain
8:39 AM 77.0 °F - 75.2 °F 94% 29.93 in 10.0 mi WNW 5.8 mph - 0.03 in Rain Light Rain
8:53 AM 77.0 °F - 73.0 °F 88% 29.94 in 10.0 mi NNW 11.5 mph - 0.03 in   Overcast
8:58 AM 75.2 °F - 71.6 °F 89% 29.94 in 8.0 mi NNW 13.8 mph - 0.00 in   Overcast
9:06 AM 75.2 °F - 71.6 °F 89% 29.95 in 1.8 mi NW 15.0 mph 18.4 mph 0.10 in   Overcast
9:11 AM 75.2 °F - 73.4 °F 94% 29.96 in 3.0 mi NW 16.1 mph 21.9 mph 0.12 in Rain , Thunderstorm Heavy Rain
9:18 AM 73.4 °F - 71.6 °F 94% 29.96 in 3.0 mi WNW 10.4 mph 21.9 mph 0.13 in Rain Light Rain
9:23 AM 73.4 °F - 71.6 °F 94% 29.95 in 3.0 mi NW 11.5 mph - 0.13 in Rain , Thunderstorm Light Rain
9:53 AM 73.9 °F - 72.0 °F 93% 29.96 in 1.5 mi Calm Calm - 0.22 in Rain , Thunderstorm Heavy Rain
9:55 AM 73.4 °F - 71.6 °F 94% 29.96 in 3.0 mi Calm Calm - 0.01 in Rain , Thunderstorm Heavy Thunderstorms and Rain
10:02 AM 73.4 °F - 73.4 °F 100% 29.97 in 3.0 mi NNE 4.6 mph - 0.01 in Rain , Thunderstorm Light Thunderstorms and Rain
10:09 AM 73.4 °F - 73.4 °F 100% 29.97 in 3.0 mi NE 3.5 mph - 0.04 in Rain Rain
10:25 AM 73.4 °F - 73.4 °F 100% 29.97 in 1.8 mi Calm Calm - 0.13 in Rain Heavy Rain
10:27 AM 73.4 °F - 73.4 °F 100% 29.97 in 2.5 mi Calm Calm - 0.18 in Rain , Thunderstorm Heavy Rain
10:40 AM 75.2 °F - 73.4 °F 94% 29.96 in 2.5 mi ENE 3.5 mph - 0.19 in Rain , Thunderstorm Light Rain
10:53 AM 75.0 °F - 73.9 °F 96% 29.97 in 2.5 mi Calm Calm - 0.19 in Rain , Thunderstorm Light Thunderstorms and Rain
11:00 AM 75.2 °F - 73.4 °F 94% 29.99 in 10.0 mi Variable 3.5 mph - 0.00 in Rain , Thunderstorm Light Thunderstorms and Rain
11:07 AM 75.2 °F - 73.4 °F 94% 29.99 in 4.0 mi Variable 3.5 mph - 0.02 in Rain , Thunderstorm Thunderstorms and Rain
11:36 AM 75.2 °F - 73.4 °F 94% 29.98 in 5.0 mi SSW 8.1 mph - 0.06 in Rain , Thunderstorm Light Rain
11:49 AM 75.2 °F - 73.4 °F 94% 29.98 in 5.0 mi SSW 5.8 mph - 0.06 in   Overcast
11:53 AM 75.9 °F - 75.0 °F 97% 29.98 in 10.0 mi SSW 6.9 mph - 0.06 in   Mostly Cloudy
12:35 PM 78.8 °F - 75.2 °F 89% 29.98 in 8.0 mi SSW 6.9 mph - 0.13 in Rain Heavy Rain
12:53 PM 78.1 °F - 75.9 °F 93% 29.98 in 8.0 mi South 5.8 mph - 0.13 in Rain Light Rain
1:26 PM 78.8 °F - 77.0 °F 94% 29.97 in 10.0 mi South 4.6 mph - 0.00 in Thunderstorm Overcast
1:41 PM 80.6 °F 86.2 °F 75.2 °F 84% 29.96 in 10.0 mi SW 4.6 mph - 0.00 in   Overcast
1:53 PM 81.0 °F 87.9 °F 77.0 °F 88% 29.95 in 10.0 mi SW 6.9 mph - 0.00 in   Overcast
2:53 PM 84.9 °F 95.3 °F 77.0 °F 77% 29.91 in 10.0 mi WSW 13.8 mph - N/A   Partly Cloudy
3:53 PM 84.9 °F 94.1 °F 75.9 °F 74% 29.89 in 10.0 mi West 18.4 mph 26.5 mph N/A   Scattered Clouds
4:53 PM 84.0 °F 92.6 °F 75.9 °F 76% 29.90 in 10.0 mi West 13.8 mph - N/A   Partly Cloudy
5:53 PM 82.0 °F 88.6 °F 75.0 °F 79% 29.91 in 10.0 mi West 12.7 mph - 0.00 in   Mostly Cloudy
6:53 PM 82.9 °F 91.8 °F 77.0 °F 82% 29.93 in 10.0 mi West 10.4 mph 16.1 mph N/A   Mostly Cloudy
7:53 PM 82.0 °F 89.4 °F 75.9 °F 82% 29.93 in 10.0 mi West 9.2 mph - N/A   Clear
8:53 PM 81.0 °F 86.7 °F 75.0 °F 82% 29.95 in 10.0 mi West 5.8 mph - N/A   Partly Cloudy
9:53 PM 81.0 °F 87.3 °F 75.9 °F 85% 29.96 in 10.0 mi West 4.6 mph - N/A   Partly Cloudy
10:53 PM 80.1 °F 85.4 °F 75.9 °F 87% 29.97 in 10.0 mi West 3.5 mph - N/A   Partly Cloudy
11:53 PM 78.1 °F - 75.9 °F 93% 29.97 in 8.0 mi South 3.5 mph - N/A   Scattered Clouds